Location: Dötzum
(52.0808°N, 9.8063°E)
Time: 06:27:21
(UTC+00:00)

Lacrosse 5 - Pass Details

Date: 27 May 2022
Orbit: 714 x 724 km, 57.0° (Epoch: 09 March)

Event Time Altitude Azimuth Distance (km) Brightness Sun altitude
Exits shadow 01:46:11 12° 229° (SW) 2,077 3.6 -9.8°
Maximum altitude 01:50:54 73° 147° (SSE) 758 1.9 -9.4°
Drops below altitude 10° 01:56:00 10° 63° (ENE) 2,217 5.6 -8.9°
Sets 01:58:23 0° 61° (ENE) 3,139 6.6 -8.7°
